AirNav   Pilot Hours Calculator
 
 452 users online  

03MI Harold Miller Heliport
Bay City, Michigan, USA

GOING TO BAY CITY?


FAA INFORMATION EFFECTIVE 26 MARCH 2020

Location

FAA Identifier: 03MI
Lat/Long: 43-33-03.0840N 083-51-43.9040W
43-33.051400N 083-51.731733W
43.5508567,-83.8621956
(estimated)
Elevation: 585 ft. / 178 m (estimated)
Variation: 05W (1980)
From city: 1 mile SE of BAY CITY, MI
Time zone: UTC -4 (UTC -5 during Standard Time)
Zip code: 48708

Heliport Operations

Heliport use: Private use. Permission required prior to landing
Activation date: 10/1986
Control tower: no
ARTCC: CLEVELAND CENTER
FSS: LANSING FLIGHT SERVICE STATION
Attendance: UNATNDD
Wind indicator: yes
Segmented circle: no

Heliport Communications

WX AWOS-3 at HYX (7 nm S): 118.325 (989-752-3408)
WX ASOS at MBS (10 nm W): 118.325 (989-695-2488)
WX AWOS-3 at IKW (19 nm W): 119.525 (989-835-5841)
WX AWOS-3 at CFS (19 nm E): 119.275 (989-672-4182)

Nearby radio navigation aids

VOR radial/distance  VOR name  Freq  Var
MBSr086/9.4SAGINAW VOR/DME112.9003W
FNTr358/35.4FLINT VORTAC116.9006W
MOPr101/38.3MOUNT PLEASANT VOR/DME110.6005W

 
NDB name  Hdg/Dist  Freq  Var  ID
OLSTE076/14.825707WMB -- -...

Heliport Services

Runway Information

Helipad H1

Dimensions: 20 x 20 ft. / 6 x 6 m
Surface: turf
Traffic pattern: leftleft

Heliport Ownership and Management from official FAA records

Ownership: Privately-owned
Owner: HAROLD M. MILLER
2126 DEWYSE ROAD
BAY CITY, MI 48708
Phone (989) 297-4154
Manager: HAROLD M. MILLER
2126 DEWYSE ROAD
BAY CITY, MI 48708
Phone (989) 297-4154

Heliport Operational Statistics

Aircraft based on the field: 1
Helicopters: 1
    

Additional Remarks

FOR CD CTC KALAMAZOO APCH AT 269-459-3345, WHEN APCH CLSD CTC CLEVELAND ARTCC AT 440-774-0224, IF UNA CTC 440-774-0490.

Instrument Procedures

There are no published instrument procedures at 03MI.

Some nearby airports with instrument procedures:

3CM - James Clements Municipal Airport (1 nm W)
KHYX - Saginaw County H W Browne Airport (7 nm S)
KMBS - MBS International Airport (10 nm W)
KIKW - Jack Barstow Airport (19 nm W)
KCFS - Tuscola Area Airport (19 nm E)
 
Loc | Ops | Rwys | IFR | FBO | Links
Com | Nav | Svcs | Stats | Notes
Area around 03MI (Harold Miller Heliport)
 
Road maps at: MapQuest Bing Google
 
Aerial photo
No photo
 
Sectional chart

 
Airport distance calculator
Flying to Harold Miller Heliport? Find the distance to fly.

From to 03MI

Sunrise and sunset
Times for 06-Apr-2020
 Local
(UTC-4)
 Zulu
(UTC)
Morning civil twilight06:3810:38
Sunrise07:0811:08
Sunset20:0800:08
Evening civil twilight20:3700:37

Current date and time
Zulu (UTC)  06-Apr-2020 11:21:53
Local (UTC-4)  06-Apr-2020 07:21:53
 
METAR
KHYX 
7nm S 
061055Z AUTO 00000KT 10SM CLR M01/M03 A3017 RMK AO2
KMBS 
10nm W 
061053Z 00000KT 10SM CLR 00/M02 A3017 RMK AO2 SLP222 T00001022
KIKW 
19nm W 
061056Z AUTO 10SM CLR M02/M04 A3016 RMK AO2 T10251041
KCFS 
19nm E 
061056Z AUTO 00000KT 7SM CLR M03/M05 A3017 RMK AO2 T10351051
TAF
KMBS 
10nm W 
060531Z 0606/0706 14005KT P6SM SKC FM061300 17005KT P6SM BKN250 FM062000 16005KT P6SM OVC120
NOTAMs
Click for the latest NOTAMs
NOTAMs are issued by the DoD/FAA and will open in a separate window not controlled by AirNav.

 

 
 

Would you like to see your business listed on this page?

 If your business provides an interesting product or service to pilots, flight crews, aircraft, or users of the Harold Miller Heliport, you should consider listing it here.  To start the listing process, click on the button below
 
Add a business
 

Other Pages about Harold Miller Heliport

Update a link
 
Copyright © AirNav, LLC. All rights reserved. Privacy Policy  Contact